This is the latest recevied weather packets stored in our database for station/object DL6MAA-11. If no packets are shown the sender has not sent any weather packets the latest 10 day(s).
| Time | Temp. | Humidity | Pressure | Rain* | Wind** | Luminosity | Snow |
|---|---|---|---|---|---|---|---|
| 1778053620 | 13.33° C | 68% | 1004.1 hPa | 0 mm | - | 139 W/m² | - |
| 1778053305 | 13.33° C | 69% | 1004.2 hPa | 0 mm | - | 125 W/m² | - |
| 1778053014 | 13.33° C | 70% | 1004.2 hPa | 0 mm | - | 132 W/m² | - |
| 1778052713 | 13.33° C | 67% | 1004.2 hPa | 0 mm | - | 155 W/m² | - |
| 1778052418 | 13.33° C | 69% | 1004.6 hPa | 0 mm | - | 165 W/m² | - |
| 1778052120 | 13.33° C | 71% | 1004.6 hPa | 0 mm | - | 174 W/m² | - |
| 1778051823 | 13.33° C | 71% | 1004.6 hPa | 0 mm | - | 162 W/m² | - |
| 1778051523 | 13.33° C | 72% | 1004.6 hPa | 0 mm | - | 158 W/m² | - |
| 1778051210 | 12.78° C | 71% | 1004.6 hPa | 0 mm | - | 148 W/m² | - |
| 1778050916 | 12.78° C | 73% | 1004.6 hPa | 0 mm | - | 148 W/m² | - |
| 1778050622 | 12.78° C | 73% | 1004.6 hPa | 0 mm | - | 118 W/m² | - |
| 1778050309 | 12.78° C | 74% | 1004.6 hPa | 0 mm | - | 121 W/m² | - |
| 1778050014 | 12.78° C | 73% | 1004.6 hPa | 0 mm | - | 123 W/m² | - |
| 1778049714 | 12.78° C | 72% | 1003.8 hPa | 0 mm | - | 109 W/m² | - |
| 1778049415 | 12.78° C | 74% | 1003.8 hPa | 0 mm | - | 114 W/m² | - |
| 1778049123 | 12.22° C | 74% | 1003.8 hPa | 0 mm | - | 116 W/m² | - |
| 1778048825 | 12.22° C | 75% | 1003.8 hPa | 0 mm | - | 114 W/m² | - |
| 1778048525 | 12.22° C | 74% | 1003.8 hPa | 0 mm | - | 118 W/m² | - |
| 1778048212 | 12.22° C | 76% | 1003.8 hPa | 0 mm | - | 225 W/m² | - |
| 1778047915 | 11.67° C | 76% | 1003.8 hPa | 0 mm | - | 234 W/m² | - |
| 1778047618 | 11.11° C | 79% | 1003.8 hPa | 0 mm | - | 158 W/m² | - |
| 1778047313 | 11.11° C | 79% | 1003.8 hPa | 0 mm | - | 141 W/m² | - |
| 1778047015 | 10.56° C | 79% | 1003.8 hPa | 0 mm | - | 130 W/m² | - |
| 1778046714 | 10.56° C | 78% | 1003.8 hPa | 0 mm | - | 135 W/m² | - |
| 1778046418 | 10.56° C | 79% | 1003.8 hPa | 0 mm | - | 113 W/m² | - |
* Rain since midnight (hover to see other rain measurements)
** Current wind speed in m/s (hover to see current wind gust speed)